Regional Weather Roundup
Issued by NWS Sterling, VA

Home | Current Version | Previous Version | Text Only | Print | Product List | Glossary On
Versions: 1 2 3 4 5 6 7 8 9 10 11 12 13 14 15 16 17 18 19 20 21 22 23 24 25 26 27 28
000
ASUS41 KLWX 211610
RWRLWX

REGIONAL WEATHER ROUNDUP
NATIONAL WEATHER SERVICE BALTIMORE MD/WASHINGTON DC
1200 PM EDT MON APR 21 2014

Note: "FAIR" indicates few or no clouds below 12,000 feet
with no significant weather and/or obstructions to visibility.
 TC=TEMPERATURE CELSIUS

 * =Non NWS site. Station does not report precipitation (e.g. rain,
    snow, etc.), thunder, or fog.

DCZ001-MDZ009-015-VAZ040>042-051-053>054-211700-
WASHINGTON METRO

CITY           SKY/WX    TMP DP  RH WIND       PRES   REMARKS
WASHINGTON NAT MOSUNNY   61  34  36 E3        30.16F
DULLES         MOSUNNY   58  23  26 VRB3      30.15F
ANDREWS AFB    SUNNY     59  38  46 W5        30.14F
FT BELVOIR     SUNNY     60  33  35 VRB3      30.15F
QUANTICO       MOSUNNY   57  41  55 E7        30.16F
COLLEGE PARK*  SUNNY     59  32  36 NW3       30.15F
LEESBURG*      SUNNY     59  30  33 CALM      30.15F
MANASSAS*      SUNNY     61  32  33 CALM      30.16
GAITHERSBURG*  SUNNY     57  19  23 SE6       30.16F

$$

MDZ006>007-011-014-211700-
BALTIMORE METRO

CITY           SKY/WX    TMP DP  RH WIND       PRES   REMARKS
BWI AIRPORT    MOSUNNY   57  26  30 CALM      30.14F
MD SCIENCE CTR   N/A     59  21  23 MISG      30.15F
MARTIN STATE   MOSUNNY   57  37  47 SE6       30.17F
ANNAPOLIS      SUNNY     55  43  63 SE10      30.15F
FORT MEADE*    SUNNY     59  25  27 NE3       30.17F

$$

MDZ012-015-019>023-211700-
MARYLAND EASTERN SHORE

CITY           SKY/WX    TMP DP  RH WIND       PRES   REMARKS
OCEAN CITY       N/A     55  43  63 MISG      30.13F
SALISBURY      SUNNY     63  46  54 NE10      30.12F
BAY BRIDGE AP* SUNNY     52  37  58 N6        30.16F
CAMBRIDGE*     SUNNY     61  45  55 N10       30.13F
EASTON*        MOSUNNY   61  45  55 NE6       30.18F

$$

MDZ017>025-211700-
SOUTHERN MARYLAND

CITY           SKY/WX    TMP DP  RH WIND       PRES   REMARKS
PATUXENT RIVER MOSUNNY   58  41  53 N5        30.14F
ST INIGOES     SUNNY     59  43  55 N7        30.13F
LEONARDTOWN*   SUNNY     57  41  54 NE3       30.16F

$$

MDZ003>005-211700-
NORTH CENTRAL MARYLAND

CITY           SKY/WX    TMP DP  RH WIND       PRES   REMARKS
FREDERICK*     SUNNY     61  34  36 CALM      30.17F
HAGERSTOWN APT SUNNY     58  30  34 S5        30.12F
WESTMINSTER*   SUNNY     57  16  19 CALM      30.14F

$$

MDZ501>502-211700-
WESTERN MARYLAND

CITY           SKY/WX    TMP DP  RH WIND       PRES   REMARKS
OAKLAND*       SUNNY     66  -6   5 N3        30.09F
CUMBERLAND*    SUNNY     61  34  36 SE6       30.14F

$$

VAZ025>031-211700-
SHENANDOAH VALLEY

CITY           SKY/WX    TMP DP  RH WIND       PRES   REMARKS
WINCHESTER*    SUNNY     61  36  39 SE5       30.12F
STAUNTON*      SUNNY     60  35  38 CALM      30.13F

$$

WVZ021-048>050-054>055-211700-
EASTERN WEST VIRGINIA PANHANDLE

CITY           SKY/WX    TMP DP  RH WIND       PRES   REMARKS
MARTINSBURG    SUNNY     61  31  32 S9        30.13F
PETERSBURG*    SUNNY     67  44  43 CALM      30.09F

$$

VAZ036>039-050-211700-
CENTRAL FOOTHILLS

CITY           SKY/WX    TMP DP  RH WIND       PRES   REMARKS
CHARLOTTESVILL SUNNY     60  29  30 CALM      30.14F
CULPEPER*      SUNNY     63   5  10 S3        30.15F

$$

VAZ055>057-211700-
NORTH AND CENTRAL PIEDMONT

CITY           SKY/WX    TMP DP  RH WIND       PRES   REMARKS
FREDERICKSBRG* SUNNY     63  43  48 N3        30.14F
STAFFORD*      SUNNY     61  35  37 CALM      30.18F

$$

NCZ024-NYZ072-PAZ021-071-VAZ022-071-211700-
OTHER REGIONAL OBSERVATIONS

CITY           SKY/WX    TMP DP  RH WIND       PRES   REMARKS
NEW YORK CITY  SUNNY     59  26  28 CALM      30.16F
PHILADELPHIA   MOSUNNY   62  31  31 CALM      30.15F
PITTSBURGH     PTSUNNY   72  30  21 VRB6      30.03F
ROANOKE        MOSUNNY   62  37  39 CALM      30.14F
RICHMOND       MOSUNNY   62  39  42 VRB3      30.14F
RALEIGH        MOSUNNY   62  35  36 NE7       30.13F

$$

ANZ530>537-211700-
MARINE OBSERVATIONS

STATION/POSITION TIME  TEMP    WIND        PRES
                       AIR SEA DIR/SP/G
                 (UTC) (F)     (DEG/KT/KT) (MB)
THOMAS PT LIGHT  1600   50 54   40/  5/  5 1021.6F
BALT KEY BRIDGE  1600   51     150/  3/  3 1021.3F
COVE POINT       1600   49     350/ 12/ 12 1020.9F
LEWISETTA        1600   54 54   10/  5/  7 1020.3F
SOLOMONS ISLAND  1600      53                N/A
PINEY POINT      1600          300/  6/  7   N/A

$$




USA.gov is the U.S. government's official web portal to all federal, state and local government web resources and services.